Location: Lincoln Park
(32.7042°N, 117.0895°W)
Time: 18:04:27
(UTC+00:00)

Sich 1 - Pass Details

Date: 26 June 2022
Orbit: 593 x 622 km, 82.5° (Epoch: 10 August)

Event Time Altitude Azimuth Distance (km) Brightness Sun altitude
Rises 11:59:24 0° 181° (S) 2,868 6.1 -8.5°
Reaches altitude 10° 12:01:37 10° 179° (S) 1,962 5.3 -8.1°
Maximum altitude 12:05:57 74° 95° (E) 635 3.3 -7.4°
Drops below altitude 10° 12:10:16 10° 10° (N) 1,957 6.3 -6.6°
Sets 12:12:29 0° 9° (N) 2,859 7.2 -6.2°
